Погода в Иргаклах

Россия / Ставропольский край     44°21′37″N   44°44′45″E
темп.,
°C
ветер,
м/с
пор.,
м/с
влажн.,
%
обл.,
%
осадки,
мм/ч
давл.,
гПа
погр.,
м
13 апреля, вт
вт1300:00+10сз3682100 0.0 1022244
03:00+10зсз3484100 0.0 1022181
06:00+10ссз2384100 0.0 1022112
09:00+11ссз127999 0.0 1022427
12:00+12з3277100 0.0 1022344
15:00+15з326881 0.0 1020496
18:00+14зсз3574100 0.0 1019137
21:00+10зсз4789100 0.0 1020146
14 апреля, ср
ср1400:00+10зсз2388100 0.0 101863
03:00+9з479353 0.0 1017198
06:00+9зсз51090100 0.0 1016308
09:00+13зсз6869100 0.0 1017728
12:00+16зсз5560100 0.0 10161411
15:00+15зсз5664100 0.1 1016824
18:00+14з5767100 0.0 1016381
21:00+10зсз4880100 0.0 1017185
15 апреля, чт
чт1500:00+10зсз378296 0.0 1017141
03:00+9зсз468567 0.0 1017111
06:00+8з48875 0.0 1017161
09:00+15сз46625 0.0 1017703
12:00+19сз55470 0.0 10161325
15:00+20сз45425 0.0 10151840
18:00+18сз34520 0.0 101546
21:00+14сз345993 0.0 101744
16 апреля, пт
пт1600:00+12ссз3362100 0.0 101620
03:00+12сз336776 0.0 101621
06:00+11сз227199 0.0 101715
09:00+17св125028 0.0 1017477
12:00+20всв233836 0.0 10161399
15:00+22в443589 0.0 10151884
18:00+19в23484 0.0 101530
21:00+16с3348100 0.0 101723
17 апреля, сб
сб1700:00+13сз4763100 0.0 1017115
03:00+11ссз4886100 0.0 1017189
06:00+11сз71186100 0.0 1020477
09:00+11ссз81178100 0.1 1022727
12:00+12ссз4570100 0.0 1022738
15:00+12сз3372100 0.0 1022566
18:00+11юз2377100 0.0 1023153
21:00+11юз2378100 0.0 1022104